Cas;Teplota [C];Tlak [hPa];Svetlo [lux];Rychlost vetru [km/h];Smer vetru [stupne]
2019-12-01 00:00:01;-0.4;1024.43;6;0;0
2019-12-01 00:00:31;-0.3;1024.42;6;0;0
2019-12-01 00:01:02;-0.32;1024.41;6;0;0
2019-12-01 00:01:31;-0.32;1024.39;5;0;0
2019-12-01 00:02:01;-0.32;1024.41;5;0;0
2019-12-01 00:02:31;-0.5;1024.43;6;0;0
2019-12-01 00:03:01;-0.39;1024.43;6;0;0
2019-12-01 00:03:31;-0.49;1024.42;6;0;0
2019-12-01 00:04:01;-0.5;1024.38;5;0;0
2019-12-01 00:04:31;-0.58;1024.32;5;0;0
2019-12-01 00:05:01;-0.66;1024.36;6;0;0
2019-12-01 00:05:31;-0.53;1024.31;6;0;0
2019-12-01 00:06:01;-0.72;1024.34;6;0;0
2019-12-01 00:06:32;-0.56;1024.31;5;0;0
2019-12-01 00:07:01;-0.54;1024.36;5;0;0
2019-12-01 00:07:31;-0.47;1024.34;5;0;0
2019-12-01 00:08:01;-0.58;1024.35;6;0;0
2019-12-01 00:08:31;-0.59;1024.37;6;0;0
2019-12-01 00:09:01;-0.57;1024.38;6;0;0
2019-12-01 00:09:31;-0.54;1024.38;7;0;0
2019-12-01 00:10:01;-0.5;1024.4;7;0;0
2019-12-01 00:10:31;-0.69;1024.43;6;0;0
2019-12-01 00:11:01;-0.77;1024.44;6;0;0
2019-12-01 00:11:31;-0.66;1024.45;6;0;0
2019-12-01 00:12:01;-0.62;1024.43;7;0;0
2019-12-01 00:12:31;-0.58;1024.43;5;0;0
2019-12-01 00:13:01;-0.54;1024.45;6;0;0
2019-12-01 00:13:31;-0.59;1024.44;6;0;0
2019-12-01 00:14:01;-0.59;1024.45;6;0;0
2019-12-01 00:14:31;-0.53;1024.44;6;0;0
2019-12-01 00:15:01;-0.49;1024.47;7;0;0
2019-12-01 00:15:31;-0.52;1024.47;6;0;0
2019-12-01 00:16:02;-0.44;1024.47;6;0;0
2019-12-01 00:16:32;-0.69;1024.48;6;0;0
2019-12-01 00:17:01;-0.73;1024.42;6;0;0
2019-12-01 00:17:31;-0.6;1024.43;6;0;0
2019-12-01 00:18:01;-0.63;1024.43;6;0;0
2019-12-01 00:18:31;-0.57;1024.44;6;0;0
2019-12-01 00:19:01;-0.65;1024.43;6;0;0
2019-12-01 00:19:31;-0.76;1024.43;6;0;0
2019-12-01 00:20:01;-0.71;1024.43;5;0;0
2019-12-01 00:20:31;-0.74;1024.43;6;0;0
2019-12-01 00:21:01;-0.78;1024.43;6;0;0
2019-12-01 00:21:31;-0.72;1024.42;6;0;0
2019-12-01 00:22:01;-0.68;1024.42;6;0;0
2019-12-01 00:22:31;-0.77;1024.41;7;0;0
2019-12-01 00:23:01;-0.67;1024.42;7;0;0
2019-12-01 00:23:31;-0.74;1024.39;5;0;0
2019-12-01 00:24:01;-0.82;1024.43;5;0;0
2019-12-01 00:24:31;-0.77;1024.41;6;0;0
2019-12-01 00:25:01;-0.81;1024.42;6;0;0
2019-12-01 00:25:31;-0.7;1024.44;7;0;0
2019-12-01 00:26:01;-0.75;1024.45;7;0;0
2019-12-01 00:26:32;-0.83;1024.46;6;0;0
2019-12-01 00:27:02;-0.78;1024.46;5;0;0
2019-12-01 00:27:31;-0.79;1024.45;7;0;0
2019-12-01 00:28:01;-0.69;1024.46;7;0;0
2019-12-01 00:28:31;-0.73;1024.43;7;0;0
2019-12-01 00:29:01;-0.68;1024.45;6;0;0
2019-12-01 00:29:31;-0.93;1024.44;6;0;0
2019-12-01 00:30:01;-0.89;1024.42;5;0;0
2019-12-01 00:30:31;-0.78;1024.44;5;0;0
2019-12-01 00:31:02;-0.66;1024.45;5;0;0
2019-12-01 00:31:31;-0.74;1024.46;5;0;0
2019-12-01 00:32:01;-0.82;1024.45;5;0;0
2019-12-01 00:32:31;-0.9;1024.44;6;0;0
2019-12-01 00:33:01;-0.71;1024.45;6;0;0
2019-12-01 00:33:31;-0.81;1024.46;6;0;0
2019-12-01 00:34:01;-0.82;1024.44;5;0;0
2019-12-01 00:34:31;-0.8;1024.45;6;0;0
2019-12-01 00:35:01;-0.79;1024.46;6;0;0
2019-12-01 00:35:32;-0.87;1024.46;6;0;0
2019-12-01 00:36:01;-0.99;1024.45;6;0;0
2019-12-01 00:36:31;-1.1;1024.45;6;0;0
2019-12-01 00:37:01;-0.93;1024.47;6;0;0
2019-12-01 00:37:31;-1.01;1024.46;6;0;0
2019-12-01 00:38:01;-0.94;1024.45;6;0;0
2019-12-01 00:38:31;-0.88;1024.47;6;0;0
2019-12-01 00:39:01;-0.94;1024.47;6;0;0
2019-12-01 00:39:31;-0.84;1024.47;6;0;0
2019-12-01 00:40:01;-0.91;1024.44;6;0;0
2019-12-01 00:40:31;-0.97;1024.43;6;0;0
2019-12-01 00:41:01;-0.96;1024.41;5;0;0
2019-12-01 00:41:31;-0.94;1024.42;6;0;0
2019-12-01 00:42:01;-0.89;1024.43;6;0;0
2019-12-01 00:42:31;-0.88;1024.43;6;0;0
2019-12-01 00:43:01;-0.82;1024.42;7;0;0
2019-12-01 00:43:31;-0.81;1024.44;5;0;0
2019-12-01 00:44:01;-0.71;1024.45;5;0;0
2019-12-01 00:44:32;-0.83;1024.45;6;0;0
2019-12-01 00:45:02;-1.04;1024.46;5;0;0
2019-12-01 00:45:31;-1.06;1024.46;6;0;0
2019-12-01 00:46:01;-1.13;1024.46;6;0;0
2019-12-01 00:46:31;-1.01;1024.48;6;0;0
2019-12-01 00:47:01;-1.05;1024.46;6;0;0
2019-12-01 00:47:31;-1.15;1024.44;6;0;0
2019-12-01 00:48:01;-1.07;1024.45;6;0;0
2019-12-01 00:48:31;-1.16;1024.43;7;0;0
2019-12-01 00:49:01;-1.14;1024.41;7;0;0
2019-12-01 00:49:31;-1.18;1024.41;6;0;0
2019-12-01 00:50:01;-1.07;1024.43;7;0;0
2019-12-01 00:50:31;-0.98;1024.43;6;0;0
2019-12-01 00:51:01;-1.07;1024.43;6;0;0
2019-12-01 00:51:31;-1.14;1024.43;6;0;0
2019-12-01 00:52:02;-1.11;1024.41;5;0;0
2019-12-01 00:52:31;-1.18;1024.42;5;0;0
2019-12-01 00:53:01;-1.16;1024.44;6;0;0
2019-12-01 00:53:31;-1.14;1024.43;6;0;0
2019-12-01 00:54:01;-1.11;1024.4;6;0;0
2019-12-01 00:54:32;-1.05;1024.4;7;0;0
2019-12-01 00:55:01;-0.97;1024.4;6;0;0
2019-12-01 00:55:31;-0.96;1024.42;6;0;0
2019-12-01 00:56:01;-1.14;1024.4;6;0;0
2019-12-01 00:56:31;-1.21;1024.43;6;0;0
2019-12-01 00:57:01;-1.3;1024.43;6;0;0
2019-12-01 00:57:31;-1.28;1024.43;6;0;0
2019-12-01 00:58:01;-1.17;1024.42;6;0;0
2019-12-01 00:58:31;-1.47;1024.42;6;0;0
2019-12-01 00:59:01;-1.35;1024.43;6;0;0
2019-12-01 00:59:31;-1.3;1024.4;6;0;0
2019-12-01 01:00:01;-1.27;1024.42;6;0;0
2019-12-01 01:00:31;-1.3;1024.38;6;0;0
2019-12-01 01:01:01;-1.49;1024.39;6;0;0
2019-12-01 01:01:31;-1.34;1024.35;6;0;0
2019-12-01 01:02:01;-1.34;1024.36;6;0;0
2019-12-01 01:02:31;-1.5;1024.38;6;0;0
2019-12-01 01:03:01;-1.52;1024.36;5;0;0
2019-12-01 01:03:32;-1.36;1024.37;5;0;0
2019-12-01 01:04:01;-1.32;1024.37;5;0;0
2019-12-01 01:04:31;-1.27;1024.34;6;0;0
2019-12-01 01:05:01;-1.44;1024.36;6;0;0
2019-12-01 01:05:31;-1.49;1024.36;6;0;0
2019-12-01 01:06:01;-1.43;1024.39;6;0;0
2019-12-01 01:06:31;-1.18;1024.38;6;0;0
2019-12-01 01:07:01;-1.14;1024.36;7;0;0
2019-12-01 01:07:31;-1.17;1024.38;5;0;0
2019-12-01 01:08:01;-1.25;1024.35;6;0;0
2019-12-01 01:08:31;-1.23;1024.35;6;0;0
2019-12-01 01:09:01;-1.21;1024.39;7;0;0
2019-12-01 01:09:31;-1.36;1024.4;5;0;0
2019-12-01 01:10:01;-1.51;1024.37;6;0;0
2019-12-01 01:10:31;-1.21;1024.38;5;0;0
2019-12-01 01:11:01;-1.36;1024.4;5;0;0
2019-12-01 01:11:32;-1.21;1024.32;5;0;0
2019-12-01 01:12:01;-1.51;1024.35;5;0;0
2019-12-01 01:12:31;-1.6;1024.36;6;0;0
2019-12-01 01:13:01;-1.45;1024.39;7;0;0
2019-12-01 01:13:31;-1.47;1024.4;7;0;0
2019-12-01 01:14:02;-1.5;1024.39;7;0;0
2019-12-01 01:14:31;-1.41;1024.38;7;0;0
2019-12-01 01:15:01;-1.47;1024.38;6;0;0
2019-12-01 01:15:31;-1.68;1024.39;6;0;0
2019-12-01 01:16:01;-1.53;1024.37;6;0;0
2019-12-01 01:16:31;-1.54;1024.38;6;0;0
2019-12-01 01:17:01;-1.4;1024.41;6;0;0
2019-12-01 01:17:31;-1.53;1024.37;7;0;0
2019-12-01 01:18:01;-1.4;1024.35;6;0;0
2019-12-01 01:18:31;-1.65;1024.35;6;0;0
2019-12-01 01:19:01;-1.53;1024.36;6;0;0
2019-12-01 01:19:31;-1.81;1024.37;6;0;0
2019-12-01 01:20:02;-1.57;1024.39;6;0;0
2019-12-01 01:20:31;-1.35;1024.37;6;0;0
2019-12-01 01:21:01;-1.42;1024.4;5;0;0
2019-12-01 01:21:31;-1.62;1024.39;6;0;0
2019-12-01 01:22:01;-1.55;1024.37;7;0;0
2019-12-01 01:22:32;-1.66;1024.4;5;0;0
2019-12-01 01:23:01;-1.6;1024.4;6;0;0
2019-12-01 01:23:31;-1.53;1024.39;6;0;0
2019-12-01 01:24:01;-1.54;1024.38;5;0;0
2019-12-01 01:24:31;-1.67;1024.39;5;0;0
2019-12-01 01:25:01;-1.52;1024.39;5;0;0
2019-12-01 01:25:31;-1.55;1024.39;5;0;0
2019-12-01 01:26:01;-1.51;1024.4;6;0;0
2019-12-01 01:26:31;-1.49;1024.34;8;0;0
2019-12-01 01:27:01;-1.51;1024.33;5;0;0
2019-12-01 01:27:31;-1.64;1024.35;6;0;0
2019-12-01 01:28:01;-1.84;1024.37;5;0;0
2019-12-01 01:28:31;-1.78;1024.33;6;0;0
2019-12-01 01:29:01;-1.76;1024.36;5;0;0
2019-12-01 01:29:31;-1.77;1024.34;6;0;0
2019-12-01 01:30:01;-1.78;1024.38;6;0;0
2019-12-01 01:30:31;-1.82;1024.41;7;0;0
2019-12-01 01:31:01;-1.82;1024.41;6;0;0
2019-12-01 01:31:32;-1.7;1024.4;6;0;0
2019-12-01 01:32:01;-1.89;1024.4;6;0;0
2019-12-01 01:32:31;-1.84;1024.4;6;0;0
2019-12-01 01:33:01;-1.7;1024.4;6;0;0
2019-12-01 01:33:31;-1.66;1024.39;5;0;0
2019-12-01 01:34:01;-1.58;1024.41;6;0;0
2019-12-01 01:34:31;-1.74;1024.38;6;0;0
2019-12-01 01:35:01;-1.8;1024.36;6;0;0
2019-12-01 01:35:31;-1.72;1024.39;6;0;0
2019-12-01 01:36:01;-1.68;1024.39;6;0;0
2019-12-01 01:36:31;-1.65;1024.41;6;0;0
2019-12-01 01:37:01;-1.81;1024.41;5;0;0
2019-12-01 01:37:31;-1.82;1024.39;6;0;0
2019-12-01 01:38:01;-1.67;1024.41;6;0;0
2019-12-01 01:38:31;-1.68;1024.36;6;0;0
2019-12-01 01:39:02;-1.72;1024.36;6;0;0
2019-12-01 01:39:31;-1.86;1024.38;6;0;0
2019-12-01 01:40:01;-1.75;1024.38;7;0;0
2019-12-01 01:40:32;-1.71;1024.38;7;0;0
2019-12-01 01:41:01;-1.84;1024.39;6;0;0
2019-12-01 01:41:31;-1.77;1024.37;6;0;0
2019-12-01 01:42:01;-1.7;1024.4;6;0;0
2019-12-01 01:42:31;-1.77;1024.4;5;0;0
2019-12-01 01:43:01;-1.81;1024.42;5;0;0
2019-12-01 01:43:31;-1.58;1024.41;5;0;0
2019-12-01 01:44:01;-1.54;1024.33;6;0;0
2019-12-01 01:44:31;-1.48;1024.36;6;0;0
2019-12-01 01:45:01;-1.64;1024.37;5;0;0
2019-12-01 01:45:31;-1.52;1024.35;5;0;0
2019-12-01 01:46:01;-1.48;1024.39;6;0;0
2019-12-01 01:46:31;-1.73;1024.37;6;0;0
2019-12-01 01:47:02;-1.61;1024.35;5;0;0
2019-12-01 01:47:31;-1.49;1024.38;6;0;0
2019-12-01 01:48:01;-1.48;1024.36;6;0;0
2019-12-01 01:48:31;-1.52;1024.41;4;0;0
2019-12-01 01:49:01;-1.47;1024.42;4;0;0
2019-12-01 01:49:32;-1.58;1024.4;6;0;0
2019-12-01 01:50:01;-1.45;1024.42;7;0;0
2019-12-01 01:50:31;-1.45;1024.41;6;0;0
2019-12-01 01:51:01;-1.54;1024.4;5;0;0
2019-12-01 01:51:31;-1.53;1024.4;4;0;0
2019-12-01 01:52:01;-1.6;1024.42;6;0;0
2019-12-01 01:52:31;-1.47;1024.43;6;0;0
2019-12-01 01:53:01;-1.68;1024.44;7;0;0
2019-12-01 01:53:31;-1.62;1024.44;6;0;0
2019-12-01 01:54:01;-1.71;1024.39;6;0;0
2019-12-01 01:54:31;-1.66;1024.4;6;0;0
2019-12-01 01:55:01;-1.64;1024.42;6;0;0
2019-12-01 01:55:31;-1.61;1024.44;6;0;0
2019-12-01 01:56:01;-1.69;1024.44;6;0;0
2019-12-01 01:56:31;-1.68;1024.44;6;0;0
2019-12-01 01:57:01;-1.65;1024.45;5;0;0
2019-12-01 01:57:32;-1.83;1024.44;5;0;0
2019-12-01 01:58:01;-1.8;1024.44;6;0;0
2019-12-01 01:58:31;-1.82;1024.44;6;0;0
2019-12-01 01:59:01;-1.7;1024.42;6;0;0
2019-12-01 01:59:31;-1.75;1024.4;6;0;0
2019-12-01 02:00:01;-1.65;1024.42;6;0;0
2019-12-01 02:00:31;-1.55;1024.4;7;0;0
2019-12-01 02:01:01;-1.57;1024.42;6;0;0
2019-12-01 02:01:31;-1.59;1024.44;6;0;0
2019-12-01 02:02:01;-1.47;1024.45;6;0;0
2019-12-01 02:02:31;-1.59;1024.44;6;0;0
2019-12-01 02:03:01;-1.71;1024.45;6;0;0
2019-12-01 02:03:33;-1.66;1024.44;6;0;0
2019-12-01 02:04:01;-1.64;1024.45;7;0;0
2019-12-01 02:04:31;-1.65;1024.46;6;0;0
2019-12-01 02:05:01;-1.76;1024.48;5;0;0
2019-12-01 02:05:31;-1.69;1024.48;6;0;0
2019-12-01 02:06:01;-1.6;1024.48;6;0;0
2019-12-01 02:06:31;-1.7;1024.49;6;0;0
2019-12-01 02:07:01;-1.72;1024.47;5;0;0
2019-12-01 02:07:31;-1.63;1024.47;5;0;0
2019-12-01 02:08:01;-1.72;1024.45;6;0;0
2019-12-01 02:08:31;-1.69;1024.44;6;0;0
2019-12-01 02:09:01;-1.67;1024.46;5;0;0
2019-12-01 02:09:32;-1.69;1024.47;6;0;0
2019-12-01 02:10:02;-1.57;1024.47;6;0;0
2019-12-01 02:10:31;-1.75;1024.49;6;0;0
2019-12-01 02:11:01;-1.6;1024.48;6;0;0
2019-12-01 02:11:31;-1.68;1024.51;6;0;0
2019-12-01 02:12:01;-1.61;1024.49;6;0;0
2019-12-01 02:12:31;-1.56;1024.5;6;0;0
2019-12-01 02:13:01;-1.56;1024.49;5;0;0
2019-12-01 02:13:31;-1.65;1024.48;6;0;0
2019-12-01 02:14:01;-1.72;1024.47;7;0;0
2019-12-01 02:14:31;-1.62;1024.46;6;0;0
2019-12-01 02:15:01;-1.55;1024.49;6;0;0
2019-12-01 02:15:31;-1.56;1024.48;6;0;0
2019-12-01 02:16:01;-1.58;1024.52;6;0;0
2019-12-01 02:16:31;-1.6;1024.5;5;0;0
2019-12-01 02:17:01;-1.41;1024.52;6;0;0
2019-12-01 02:17:31;-1.57;1024.5;6;0;0
2019-12-01 02:18:02;-1.55;1024.51;6;0;0
2019-12-01 02:18:32;-1.61;1024.49;5;0;0
2019-12-01 02:19:01;-1.57;1024.51;5;0;0
2019-12-01 02:19:31;-1.55;1024.52;5;0;0
2019-12-01 02:20:01;-1.65;1024.58;5;0;0
2019-12-01 02:20:31;-1.87;1024.67;6;0;0
2019-12-01 02:21:01;-1.82;1024.65;6;0;0
2019-12-01 02:21:31;-1.64;1024.64;6;0;0
2019-12-01 02:22:01;-1.6;1024.6;5;0;0
2019-12-01 02:22:31;-1.49;1024.62;6;0;0
2019-12-01 02:23:01;-1.56;1024.61;6;0;0
2019-12-01 02:23:31;-1.52;1024.59;7;0;0
2019-12-01 02:24:01;-1.6;1024.55;6;0;0
2019-12-01 02:24:31;-1.61;1024.53;6;0;0
2019-12-01 02:25:01;-1.59;1024.5;7;0;0
2019-12-01 02:25:31;-1.52;1024.49;6;0;0
2019-12-01 02:26:01;-1.6;1024.45;5;0;0
2019-12-01 02:26:31;-1.53;1024.47;6;0;0
2019-12-01 02:27:01;-1.54;1024.47;6;0;0
2019-12-01 02:27:31;-1.47;1024.46;5;0;0
2019-12-01 02:28:01;-1.53;1024.47;6;0;0
2019-12-01 02:28:32;-1.32;1024.47;6;0;0
2019-12-01 02:29:01;-1.45;1024.49;6;0;0
2019-12-01 02:29:31;-1.43;1024.49;6;0;0
2019-12-01 02:30:01;-1.41;1024.51;7;0;0
2019-12-01 02:30:31;-1.32;1024.52;6;0;0
2019-12-01 02:31:01;-1.19;1024.51;6;0;0
2019-12-01 02:31:31;-1.35;1024.54;5;0;0
2019-12-01 02:32:01;-1.33;1024.52;6;0;0
2019-12-01 02:32:31;-1.25;1024.5;5;0;0
2019-12-01 02:33:01;-1.1;1024.5;5;0;0
2019-12-01 02:33:31;-1.18;1024.49;6;0;0
2019-12-01 02:34:01;-1.23;1024.5;6;0;0
2019-12-01 02:34:31;-1.21;1024.48;7;0;0
2019-12-01 02:35:01;-1.2;1024.5;6;0;0
2019-12-01 02:35:31;-1.3;1024.51;6;0;0
2019-12-01 02:36:01;-1.35;1024.49;5;0;0
2019-12-01 02:36:31;-1.36;1024.49;6;0;0
2019-12-01 02:37:01;-1.29;1024.48;6;0;0
2019-12-01 02:37:31;-1.21;1024.49;5;0;0
2019-12-01 02:38:01;-1.15;1024.51;5;0;0
2019-12-01 02:38:32;-1.09;1024.52;5;0;0
2019-12-01 02:39:01;-1.2;1024.5;5;0;0
2019-12-01 02:39:31;-1.1;1024.49;6;0;0
2019-12-01 02:40:01;-1.04;1024.47;6;0;0
2019-12-01 02:40:31;-1.05;1024.47;5;0;0
2019-12-01 02:41:02;-1.23;1024.45;6;0;0
2019-12-01 02:41:31;-1.05;1024.46;6;0;0
2019-12-01 02:42:01;-1.25;1024.46;6;0;0
2019-12-01 02:42:31;-1.22;1024.46;6;0;0
2019-12-01 02:43:01;-1.08;1024.46;6;0;0
2019-12-01 02:43:31;-1.08;1024.48;6;0;0
2019-12-01 02:44:01;-0.98;1024.48;4;0;0
2019-12-01 02:44:31;-1.07;1024.48;5;0;0
2019-12-01 02:45:01;-1.04;1024.46;6;0;0
2019-12-01 02:45:31;-1.06;1024.46;6;0;0
2019-12-01 02:46:01;-1.14;1024.45;6;0;0
2019-12-01 02:46:31;-1.02;1024.47;7;0;0
2019-12-01 02:47:01;-1.08;1024.47;6;0;0
2019-12-01 02:47:31;-1.15;1024.47;6;0;0
2019-12-01 02:48:01;-1.13;1024.47;5;0;0
2019-12-01 02:48:32;-0.85;1024.47;5;0;0
2019-12-01 02:49:01;-0.98;1024.47;5;0;0
2019-12-01 02:49:31;-0.9;1024.47;6;0;0
2019-12-01 02:50:01;-1.05;1024.47;5;0;0
2019-12-01 02:50:31;-1.07;1024.48;6;0;0
2019-12-01 02:51:01;-0.98;1024.48;6;0;0
2019-12-01 02:51:31;-0.94;1024.47;7;0;0
2019-12-01 02:52:01;-0.9;1024.47;5;0;0
2019-12-01 02:52:31;-0.78;1024.48;5;0;0
2019-12-01 02:53:01;-0.97;1024.47;6;0;0
2019-12-01 02:53:31;-1.11;1024.47;7;0;0
2019-12-01 02:54:01;-0.81;1024.45;6;0;0
2019-12-01 02:54:31;-0.87;1024.44;6;0;0
2019-12-01 02:55:01;-1.05;1024.45;6;0;0
2019-12-01 02:55:31;-1.08;1024.47;6;0;0
2019-12-01 02:56:01;-1.04;1024.47;6;0;0
2019-12-01 02:56:32;-0.92;1024.47;6;0;0
2019-12-01 02:57:01;-1;1024.47;6;0;0
2019-12-01 02:57:31;-0.9;1024.47;6;0;0
2019-12-01 02:58:01;-1;1024.47;5;0;0
2019-12-01 02:58:31;-1.05;1024.47;5;0;0
2019-12-01 02:59:01;-1.03;1024.5;5;0;0
2019-12-01 02:59:31;-0.97;1024.48;6;0;0
2019-12-01 03:00:02;-0.8;1024.5;6;0;0
2019-12-01 03:00:31;-0.97;1024.5;6;0;0
2019-12-01 03:01:01;-1.1;1024.51;5;0;0
2019-12-01 03:01:31;-0.91;1024.52;6;0;0
2019-12-01 03:02:01;-0.89;1024.51;6;0;0
2019-12-01 03:02:31;-0.73;1024.49;7;0;0
2019-12-01 03:03:01;-1.04;1024.51;5;0;0
2019-12-01 03:03:31;-0.93;1024.53;5;0;0
2019-12-01 03:04:01;-0.88;1024.57;5;0;0
2019-12-01 03:04:32;-0.8;1024.56;6;0;0
2019-12-01 03:05:01;-0.84;1024.57;6;0;0
2019-12-01 03:05:31;-1.09;1024.55;6;0;0
2019-12-01 03:06:01;-1.05;1024.54;5;0;0
2019-12-01 03:06:31;-1;1024.51;5;0;0
2019-12-01 03:07:01;-0.9;1024.53;6;0;0
2019-12-01 03:07:31;-0.98;1024.52;6;0;0
2019-12-01 03:08:01;-0.99;1024.59;6;0;0
2019-12-01 03:08:31;-1.03;1024.59;6;0;0
2019-12-01 03:09:01;-1.02;1024.58;5;0;0
2019-12-01 03:09:31;-1.03;1024.54;6;0;0
2019-12-01 03:10:01;-0.81;1024.56;6;0;0
2019-12-01 03:10:32;-0.91;1024.58;6;0;0
2019-12-01 03:11:02;-0.9;1024.53;5;0;0
2019-12-01 03:11:31;-0.73;1024.52;5;0;0
2019-12-01 03:12:01;-0.88;1024.53;5;0;0
2019-12-01 03:12:31;-0.83;1024.51;5;0;0
2019-12-01 03:13:01;-0.95;1024.52;5;0;0
2019-12-01 03:13:31;-0.98;1024.55;6;0;0
2019-12-01 03:14:01;-0.96;1024.52;6;0;0
2019-12-01 03:14:31;-1.01;1024.54;5;0;0
2019-12-01 03:15:01;-0.87;1024.54;6;0;0
2019-12-01 03:15:31;-0.95;1024.53;6;0;0
2019-12-01 03:16:01;-0.98;1024.53;6;0;0
2019-12-01 03:16:31;-0.98;1024.51;6;0;0
2019-12-01 03:17:01;-0.86;1024.49;6;0;0
2019-12-01 03:17:31;-0.81;1024.5;6;0;0
2019-12-01 03:18:01;-1.07;1024.5;6;0;0
2019-12-01 03:18:31;-0.95;1024.47;6;0;0
2019-12-01 03:19:01;-0.94;1024.46;6;0;0
2019-12-01 03:19:32;-0.94;1024.47;5;0;0
2019-12-01 03:20:01;-1.05;1024.47;6;0;0
2019-12-01 03:20:31;-1;1024.47;5;0;0
2019-12-01 03:21:01;-1.09;1024.47;6;0;0
2019-12-01 03:21:31;-1.19;1024.48;5;0;0
2019-12-01 03:22:01;-1.06;1024.48;6;0;0
2019-12-01 03:22:31;-0.94;1024.47;7;0;0
2019-12-01 03:23:01;-1;1024.45;6;0;0
2019-12-01 03:23:31;-0.93;1024.46;5;0;0
2019-12-01 03:24:01;-0.95;1024.46;5;0;0
2019-12-01 03:24:31;-0.75;1024.46;5;0;0
2019-12-01 03:25:01;-0.91;1024.46;6;0;0
2019-12-01 03:25:31;-0.72;1024.49;6;0;0
2019-12-01 03:26:01;-0.83;1024.48;6;0;0
2019-12-01 03:26:31;-1.06;1024.46;5;0;0
2019-12-01 03:27:02;-0.97;1024.46;5;0;0
2019-12-01 03:27:31;-0.91;1024.44;5;0;0
2019-12-01 03:28:01;-1.01;1024.42;5;0;0
2019-12-01 03:28:32;-0.96;1024.43;6;0;0
2019-12-01 03:29:01;-0.7;1024.44;6;0;0
2019-12-01 03:29:31;-0.81;1024.45;6;0;0
2019-12-01 03:30:01;-0.89;1024.46;6;0;0
2019-12-01 03:30:31;-0.8;1024.45;5;0;0
2019-12-01 03:31:01;-0.77;1024.46;5;0;0
2019-12-01 03:31:31;-0.83;1024.46;5;0;0
2019-12-01 03:32:01;-0.69;1024.46;5;0;0
2019-12-01 03:32:31;-0.81;1024.47;5;0;0
2019-12-01 03:33:01;-0.93;1024.47;5;0;0
2019-12-01 03:33:31;-0.93;1024.47;5;0;0
2019-12-01 03:34:01;-0.97;1024.47;5;0;0
2019-12-01 03:34:31;-0.9;1024.47;5;0;0
2019-12-01 03:35:01;-0.9;1024.46;6;0;0
2019-12-01 03:35:31;-0.83;1024.46;5;0;0
2019-12-01 03:36:01;-0.79;1024.44;5;0;0
2019-12-01 03:36:31;-0.81;1024.45;5;0;0
2019-12-01 03:37:01;-0.82;1024.43;6;0;0
2019-12-01 03:37:31;-0.96;1024.46;6;0;0
2019-12-01 03:38:01;-0.9;1024.44;5;0;0
2019-12-01 03:38:32;-1.01;1024.44;5;0;0
2019-12-01 03:39:01;-0.91;1024.43;5;0;0
2019-12-01 03:39:31;-1.07;1024.44;6;0;0
2019-12-01 03:40:01;-0.83;1024.43;6;0;0
2019-12-01 03:40:31;-0.96;1024.44;7;0;0
2019-12-01 03:41:01;-0.87;1024.42;6;0;0
2019-12-01 03:41:31;-0.84;1024.43;6;0;0
2019-12-01 03:42:01;-0.77;1024.4;6;0;0
2019-12-01 03:42:31;-1.01;1024.42;5;0;0
2019-12-01 03:43:02;-0.93;1024.42;5;0;0
2019-12-01 03:43:31;-0.89;1024.41;6;0;0
2019-12-01 03:44:01;-0.89;1024.42;6;0;0
2019-12-01 03:44:31;-0.86;1024.41;6;0;0
2019-12-01 03:45:01;-0.8;1024.39;6;0;0
2019-12-01 03:45:31;-0.68;1024.34;6;0;0
2019-12-01 03:46:02;-0.8;1024.35;5;0;0
2019-12-01 03:46:31;-0.94;1024.37;5;0;0
2019-12-01 03:47:01;-0.81;1024.37;5;0;0
2019-12-01 03:47:32;-0.79;1024.35;5;0;0
2019-12-01 03:48:01;-1.09;1024.31;5;0;0
2019-12-01 03:48:31;-1.19;1024.3;6;0;0
2019-12-01 03:49:01;-1.08;1024.33;6;0;0
2019-12-01 03:49:31;-0.95;1024.32;6;0;0
2019-12-01 03:50:01;-0.94;1024.28;5;0;0
2019-12-01 03:50:31;-0.87;1024.28;5;0;0
2019-12-01 03:51:01;-0.92;1024.25;6;0;0
2019-12-01 03:51:31;-0.87;1024.21;6;0;0
2019-12-01 03:52:02;-0.91;1024.23;7;0;0
2019-12-01 03:52:31;-0.93;1024.23;5;0;0
2019-12-01 03:53:01;-1.09;1024.25;6;0;0
2019-12-01 03:53:31;-1.23;1024.16;6;0;0
2019-12-01 03:54:01;-1.15;1024.16;6;0;0
2019-12-01 03:54:31;-0.97;1024.15;6;0;0
2019-12-01 03:55:01;-1.11;1024.17;6;0;0
2019-12-01 03:55:31;-0.99;1024.25;5;0;0
2019-12-01 03:56:01;-1.01;1024.24;6;0;0
2019-12-01 03:56:32;-1.03;1024.27;6;0;0
2019-12-01 03:57:01;-1.11;1024.27;5;0;0
2019-12-01 03:57:31;-1.2;1024.26;4;0;0
2019-12-01 03:58:01;-0.98;1024.3;6;0;0
2019-12-01 03:58:31;-0.94;1024.31;5;0;0
2019-12-01 03:59:01;-1.08;1024.34;6;0;0
2019-12-01 03:59:31;-1.16;1024.3;5;0;0
2019-12-01 04:00:01;-1.19;1024.28;6;0;0
2019-12-01 04:00:31;-1.11;1024.32;6;0;0
2019-12-01 04:01:01;-1.07;1024.34;6;0;0
2019-12-01 04:01:31;-1.09;1024.29;5;0;0
2019-12-01 04:02:01;-1.04;1024.32;6;0;0
2019-12-01 04:02:31;-1.12;1024.38;5;0;0
2019-12-01 04:03:01;-1.2;1024.38;6;0;0
2019-12-01 04:03:31;-0.95;1024.34;6;0;0
2019-12-01 04:04:01;-0.96;1024.31;6;0;0
2019-12-01 04:04:32;-1.14;1024.31;5;0;0
2019-12-01 04:05:01;-1.14;1024.35;5;0;0
2019-12-01 04:05:31;-1.16;1024.31;6;0;0
2019-12-01 04:06:01;-1.15;1024.32;5;0;0
2019-12-01 04:06:31;-1.18;1024.32;5;0;0
2019-12-01 04:07:01;-1.11;1024.34;5;0;0
2019-12-01 04:07:31;-1.11;1024.34;5;0;0
2019-12-01 04:08:01;-1.03;1024.36;5;0;0
2019-12-01 04:08:31;-1.18;1024.36;4;0;0
2019-12-01 04:09:01;-1.05;1024.39;5;0;0
2019-12-01 04:09:31;-1.14;1024.38;5;0;0
2019-12-01 04:10:01;-1.18;1024.42;5;0;0
2019-12-01 04:10:31;-1.04;1024.4;6;0;0
2019-12-01 04:11:02;-1.16;1024.41;5;0;0
2019-12-01 04:11:31;-1.07;1024.38;5;0;0
2019-12-01 04:12:01;-1.11;1024.38;5;0;0
2019-12-01 04:12:32;-1.1;1024.35;6;0;0
2019-12-01 04:13:01;-1.23;1024.36;6;0;0
2019-12-01 04:13:31;-1.39;1024.34;6;0;0
2019-12-01 04:14:01;-1.42;1024.33;5;0;0
2019-12-01 04:14:31;-1.13;1024.36;6;0;0
2019-12-01 04:15:01;-1.33;1024.36;6;0;0
2019-12-01 04:15:31;-1.33;1024.37;5;0;0
2019-12-01 04:16:01;-1.26;1024.35;5;0;0
2019-12-01 04:16:31;-1.25;1024.3;6;0;0
2019-12-01 04:17:01;-1.34;1024.32;5;0;0
2019-12-01 04:17:31;-1.33;1024.34;6;0;0
2019-12-01 04:18:01;-1.33;1024.33;5;0;0
2019-12-01 04:18:31;-1.33;1024.31;6;0;0
2019-12-01 04:19:01;-1.29;1024.34;6;0;0
2019-12-01 04:19:31;-1.29;1024.35;5;0;0
2019-12-01 04:20:02;-1.2;1024.38;4;0;0
2019-12-01 04:20:31;-1.32;1024.36;5;0;0
2019-12-01 04:21:01;-1.19;1024.39;5;0;0
2019-12-01 04:21:32;-1.26;1024.39;5;0;0
2019-12-01 04:22:01;-1.32;1024.39;4;0;0
2019-12-01 04:22:31;-1.27;1024.41;5;0;0
2019-12-01 04:23:01;-1.21;1024.4;5;0;0
2019-12-01 04:23:31;-1.25;1024.36;5;0;0
2019-12-01 04:24:01;-1.33;1024.38;4;0;0
2019-12-01 04:24:31;-1.29;1024.36;6;0;0
2019-12-01 04:25:01;-1.21;1024.34;7;0;0
2019-12-01 04:25:31;-1.23;1024.28;6;0;0
2019-12-01 04:26:01;-1.22;1024.27;6;0;0
2019-12-01 04:26:31;-1.33;1024.32;7;0;0
2019-12-01 04:27:01;-1.14;1024.3;5;0;0
2019-12-01 04:27:31;-1.14;1024.34;5;0;0
2019-12-01 04:28:01;-1.09;1024.38;4;0;0
2019-12-01 04:28:31;-1.38;1024.34;5;0;0
2019-12-01 04:29:01;-1.33;1024.3;6;0;0
2019-12-01 04:29:31;-1.3;1024.32;6;0;0
2019-12-01 04:30:01;-1.22;1024.34;5;0;0
2019-12-01 04:30:32;-1.18;1024.31;5;0;0
2019-12-01 04:31:01;-1.29;1024.32;6;0;0
2019-12-01 04:31:31;-1.28;1024.33;6;0;0
2019-12-01 04:32:01;-1.25;1024.36;5;0;0
2019-12-01 04:32:31;-1.44;1024.33;6;0;0
2019-12-01 04:33:01;-1.23;1024.31;6;0;0
2019-12-01 04:33:31;-1.25;1024.28;6;0;0
2019-12-01 04:34:01;-1.39;1024.32;5;0;0
2019-12-01 04:34:31;-1.46;1024.31;6;0;0
2019-12-01 04:35:02;-1.43;1024.3;5;0;0
2019-12-01 04:35:31;-1.31;1024.27;5;0;0
2019-12-01 04:36:01;-1.34;1024.23;4;0;0
2019-12-01 04:36:31;-1.49;1024.29;6;0;0
2019-12-01 04:37:01;-1.43;1024.28;6;0;0
2019-12-01 04:37:32;-1.53;1024.28;5;0;0
2019-12-01 04:38:01;-1.48;1024.23;5;0;0
2019-12-01 04:38:31;-1.45;1024.19;5;0;0
2019-12-01 04:39:01;-1.56;1024.24;6;0;0
2019-12-01 04:39:31;-1.54;1024.22;6;0;0
2019-12-01 04:40:01;-1.66;1024.25;6;0;0
2019-12-01 04:40:31;-1.56;1024.23;6;0;0
2019-12-01 04:41:01;-1.74;1024.16;6;0;0
2019-12-01 04:41:31;-1.64;1024.18;5;0;0
2019-12-01 04:42:01;-1.65;1024.16;5;0;0
2019-12-01 04:42:31;-1.61;1024.14;5;0;0
2019-12-01 04:43:01;-1.6;1024.19;5;0;0
2019-12-01 04:43:31;-1.75;1024.15;6;0;0
2019-12-01 04:44:01;-1.88;1024.15;6;0;0
2019-12-01 04:44:31;-1.66;1024.21;6;0;0
2019-12-01 04:45:01;-1.79;1024.18;6;0;0
2019-12-01 04:45:32;-1.73;1024.16;6;0;0
2019-12-01 04:46:01;-1.78;1024.17;6;0;0
2019-12-01 04:46:31;-1.89;1024.24;5;0;0
2019-12-01 04:47:01;-1.93;1024.21;6;0;0
2019-12-01 04:47:31;-1.77;1024.18;6;0;0
2019-12-01 04:48:01;-1.92;1024.17;6;0;0
2019-12-01 04:48:31;-1.88;1024.18;7;0;0
2019-12-01 04:49:01;-1.94;1024.19;6;0;0
2019-12-01 04:49:31;-1.96;1024.16;6;0;0
2019-12-01 04:50:01;-1.82;1024.17;5;0;0
2019-12-01 04:50:31;-1.88;1024.1;5;0;0
2019-12-01 04:51:01;-1.88;1024.06;7;0;0
2019-12-01 04:51:31;-1.7;1024.11;6;0;0
2019-12-01 04:52:01;-1.75;1024.11;6;0;0
2019-12-01 04:52:31;-1.8;1024.1;6;0;0
2019-12-01 04:53:01;-1.76;1024.12;6;0;0
2019-12-01 04:53:31;-1.87;1024.04;5;0;0
2019-12-01 04:54:01;-1.89;1023.99;5;0;0
2019-12-01 04:54:32;-1.79;1024.04;5;0;0
2019-12-01 04:55:01;-1.92;1024.06;6;0;0
2019-12-01 04:55:31;-1.91;1024.01;6;0;0
2019-12-01 04:56:01;-1.77;1023.99;6;0;0
2019-12-01 04:56:31;-2.07;1024.01;6;0;0
2019-12-01 04:57:02;-2.03;1024.04;6;0;0
2019-12-01 04:57:31;-2.03;1024.06;5;0;0
2019-12-01 04:58:01;-2.02;1024.11;6;0;0
2019-12-01 04:58:31;-2.15;1024.07;6;0;0
2019-12-01 04:59:01;-2.16;1024.12;6;0;0
2019-12-01 04:59:31;-2.08;1024.1;6;0;0
2019-12-01 05:00:01;-1.97;1024.05;6;0;0